GW7285 Weather Reports


time (UTC)temp
F
wind
direction
speed
knots
gust
knots
rain 1hr
in
rain 24hr
in
rain mn
in
humidity
%
barometer
mb
20260510225154 69 84 0.0 2.6 0.00 0.00 0.00 32 1022.4
20260510224650 69 72 1.7 2.6 0.00 0.00 0.00 34 1022.7
20260510224146 69 111 0.0 1.7 0.00 0.00 0.00 33 1022.5
20260510223644 68 125 0.9 1.7 0.00 0.00 0.00 35 1022.6
20260510223141 69 139 0.0 2.6 0.00 0.00 0.00 34 1022.6
20260510222638 69 115 0.0 2.6 0.00 0.00 0.00 35 1022.5
20260510222135 68 154 1.7 2.6 0.00 0.00 0.00 35 1022.8
20260510221630 69 198 3.5 3.5 0.00 0.00 0.00 31 1022.9
20260510221127 69 349 1.7 3.5 0.00 0.00 0.00 35 1022.6
20260510220624 69 132 0.9 0.9 0.00 0.00 0.00 35 1022.7
20260510220120 69 130 0.0 2.6 0.00 0.00 0.00 32 1022.5
20260510215617 69 109 2.6 5.2 0.00 0.00 0.00 32 1022.5
20260510215116 69 126 0.0 1.7 0.00 0.00 0.00 33 1022.6
20260510214611 69 128 0.9 5.2 0.00 0.00 0.00 35 1022.4
20260510214108 69 134 1.7 2.6 0.00 0.00 0.00 34 1022.5
20260510213605 69 91 3.5 5.2 0.00 0.00 0.00 31 1022.4
20260510213101 69 66 0.0 5.2 0.00 0.00 0.00 34 1022.4
20260510212558 68 41 1.7 1.7 0.00 0.00 0.00 38 1022.2
20260510212056 68 80 0.0 5.2 0.00 0.00 0.00 34 1022.5
20260510211553 69 167 1.7 3.5 0.00 0.00 0.00 35 1022.5
20260510211052 68 116 0.0 3.5 0.00 0.00 0.00 34 1022.4
20260510210549 68 114 0.0 2.6 0.00 0.00 0.00 39 1022.6
20260510210044 67 74 0.9 2.6 0.00 0.00 0.00 36 1022.7
20260510205543 68 64 0.0 5.2 0.00 0.00 0.00 41 1022.5
20260510205039 69 101 0.9 5.2 0.00 0.00 0.00 37 1022.6
20260510204536 70 128 0.9 2.6 0.00 0.00 0.00 38 1022.8
20260510204033 69 104 0.0 0.9 0.00 0.00 0.00 34 1022.8
20260510203530 67 97 0.9 1.7 0.00 0.00 0.00 42 1022.9
20260510203027 66 125 0.0 2.6 0.00 0.00 0.00 38 1022.8
20260510202526 67 142 0.9 0.9 0.00 0.00 0.00 37 1022.8
20260510202022 68 139 4.3 6.1 0.00 0.00 0.00 34 1022.8
20260510201520 68 121 0.0 3.5 0.00 0.00 0.00 36 1023.1
20260510201016 68 138 0.0 2.6 0.00 0.00 0.00 36 1023.0
20260510200512 68 115 0.0 0.9 0.00 0.00 0.00 40 1022.9
20260510200010 67 118 0.0 1.7 0.00 0.00 0.00 39 1023.0
20260510195508 66 189 2.6 2.6 0.00 0.00 0.00 35 1023.0
20260510195003 66 109 0.9 1.7 0.00 0.00 0.00 39 1023.0
20260510194459 66 121 0.0 1.7 0.00 0.00 0.00 41 1023.2
20260510193955 66 93 0.9 5.2 0.00 0.00 0.00 39 1023.3
20260510193449 67 81 1.7 2.6 0.00 0.00 0.00 38 1023.3
20260510192945 67 211 2.6 2.6 0.00 0.00 0.00 38 1023.4
20260510192440 67 74 0.0 1.7 0.00 0.00 0.00 43 1023.4
20260510191936 67 122 1.7 2.6 0.00 0.00 0.00 34 1023.3
20260510191432 67 92 0.0 1.7 0.00 0.00 0.00 40 1023.5
20260510190930 66 123 0.9 1.7 0.00 0.00 0.00 39 1023.7
20260510190427 66 134 0.0 0.9 0.00 0.00 0.00 42 1023.5
20260510185923 66 126 0.0 0.0 0.00 0.00 0.00 43 1023.4
20260510185421 66 148 0.0 2.6 0.00 0.00 0.00 38 1023.2
20260510184918 66 118 0.0 2.6 0.00 0.00 0.00 35 1023.2
20260510184415 67 61 0.0 3.5 0.00 0.00 0.00 37 1023.4
20260510183914 66 56 0.0 0.9 0.00 0.00 0.00 41 1023.3
20260510183412 66 111 1.7 1.7 0.00 0.00 0.00 35 1023.1
20260510182907 66 114 0.0 0.9 0.00 0.00 0.00 35 1023.2
20260510182404 66 121 1.7 3.5 0.00 0.00 0.00 38 1023.2
20260510181859 66 68 3.5 7.0 0.00 0.00 0.00 33 1023.2
20260510181357 66 162 0.9 1.7 0.00 0.00 0.00 36 1023.1
20260510180853 66 120 1.7 1.7 0.00 0.00 0.00 33 1023.1
20260510180350 66 90 0.0 2.6 0.00 0.00 0.00 38 1023.4
20260510175847 66 131 0.0 0.9 0.00 0.00 0.00 30 1023.4
20260510175342 65 101 0.0 2.6 0.00 0.00 0.00 38 1023.7
20260510174839 66 243 0.9 2.6 0.00 0.00 0.00 37 1023.6
20260510174337 66 76 1.7 3.5 0.00 0.00 0.00 33 1023.2
20260510173833 65 125 0.0 0.9 0.00 0.00 0.00 36 1023.3
20260510173329 66 122 0.0 0.9 0.00 0.00 0.00 34 1023.5
20260510172825 66 51 0.0 2.6 0.00 0.00 0.00 38 1023.4
20260510172321 66 165 2.6 3.5 0.00 0.00 0.00 37 1023.3
20260510171818 66 105 3.5 5.2 0.00 0.00 0.00 34 1023.4
20260510171315 65 143 0.9 0.9 0.00 0.00 0.00 33 1023.2
20260510170812 66 275 1.7 3.5 0.00 0.00 0.00 31 1023.5
20260510170308 67 33 0.9 1.7 0.00 0.00 0.00 35 1023.3
20260510165808 66 77 0.0 6.1 0.00 0.00 0.00 38 1023.1
20260510165307 65 97 0.9 1.7 0.00 0.00 0.00 35 1023.4
20260510164803 65 4 2.6 3.5 0.00 0.00 0.00 37 1023.2
20260510164301 66 110 2.6 6.1 0.00 0.00 0.00 36 1023.0
20260510163800 65 40 1.7 2.6 0.00 0.00 0.00 36 1022.9
20260510163257 62 199 0.9 1.7 0.00 0.00 0.00 43 1022.9
20260510162756 63 308 1.7 2.6 0.00 0.00 0.00 42 1023.0
20260510162254 64 106 0.9 2.6 0.00 0.00 0.00 36 1022.9
20260510161749 64 125 0.9 1.7 0.00 0.00 0.00 40 1022.9
20260510161245 63 37 0.9 3.5 0.00 0.00 0.00 41 1023.0
20260510160743 63 109 0.9 1.7 0.00 0.00 0.00 42 1023.1
20260510160238 63 71 1.7 3.5 0.00 0.00 0.00 37 1023.0
20260510155734 62 98 0.9 1.7 0.00 0.00 0.00 37 1023.2
20260510155230 62 115 0.0 2.6 0.00 0.00 0.00 38 1022.9
20260510154726 63 105 0.0 1.7 0.00 0.00 0.00 39 1023.0
20260510154222 62 114 0.0 1.7 0.00 0.00 0.00 39 1022.9
20260510153718 63 115 4.3 7.0 0.00 0.00 0.00 36 1022.9
20260510153214 63 123 0.0 1.7 0.00 0.00 0.00 40 1022.9
20260510152710 63 90 0.0 1.7 0.00 0.00 0.00 45 1022.9
20260510152206 62 113 2.6 5.2 0.00 0.00 0.00 36 1022.9
20260510151703 62 94 0.0 6.1 0.00 0.00 0.00 37 1022.6
20260510151202 62 142 0.9 3.5 0.00 0.00 0.00 38 1022.5
20260510150657 62 93 2.6 6.1 0.00 0.00 0.00 35 1022.5
20260510150152 62 149 0.9 5.2 0.00 0.00 0.00 39 1022.6
20260510145649 62 28 0.0 3.5 0.00 0.00 0.00 42 1022.3
20260510145146 62 56 0.9 3.5 0.00 0.00 0.00 38 1022.5
20260510144641 60 80 0.9 2.6 0.00 0.00 0.00 39 1022.4
20260510144138 60 94 1.7 3.5 0.00 0.00 0.00 42 1022.3
20260510143633 59 124 1.7 5.2 0.00 0.00 0.00 38 1022.3
20260510143131 59 121 0.0 1.7 0.00 0.00 0.00 42 1022.5
20260510142627 59 116 1.7 6.1 0.00 0.00 0.00 39 1022.5
20260510142123 58 113 0.0 3.5 0.00 0.00 0.00 40 1022.7
20260510141620 58 129 0.9 5.2 0.00 0.00 0.00 40 1022.5
20260510141119 59 107 0.9 3.5 0.00 0.00 0.00 40 1022.6
20260510140615 59 114 1.7 2.6 0.00 0.00 0.00 40 1022.6
20260510140114 59 112 0.9 3.5 0.00 0.00 0.00 39 1022.7
20260510135609 59 139 0.9 2.6 0.00 0.00 0.00 41 1022.5
20260510135106 59 123 2.6 5.2 0.00 0.00 0.00 39 1022.4
20260510134603 58 63 0.0 2.6 0.00 0.00 0.00 44 1022.2
20260510134100 58 128 2.6 2.6 0.00 0.00 0.00 41 1022.4
20260510133556 57 114 0.0 1.7 0.00 0.00 0.00 46 1022.3
20260510133052 57 114 0.0 0.9 0.00 0.00 0.00 47 1022.2
20260510132549 57 106 0.0 1.7 0.00 0.00 0.00 46 1022.2
20260510132045 57 122 0.0 0.0 0.00 0.00 0.00 46 1022.3
20260510131543 57 116 0.0 0.9 0.00 0.00 0.00 46 1022.4
20260510131040 56 130 0.9 2.6 0.00 0.00 0.00 44 1022.0
20260510130536 57 116 0.9 2.6 0.00 0.00 0.00 48 1021.9
20260510130034 57 97 0.0 1.7 0.00 0.00 0.00 44 1021.6
20260510125530 56 110 0.0 0.9 0.00 0.00 0.00 46 1021.7
20260510125027 56 97 0.9 2.6 0.00 0.00 0.00 45 1021.6
20260510124523 56 117 0.0 1.7 0.00 0.00 0.00 44 1021.4
20260510124021 56 112 0.0 0.9 0.00 0.00 0.00 46 1021.2
20260510123516 56 94 0.9 0.9 0.00 0.00 0.00 44 1021.1
20260510123012 56 93 1.7 1.7 0.00 0.00 0.00 43 1020.8
20260510122508 56 97 0.0 1.7 0.00 0.00 0.00 45 1020.9
20260510122004 56 38 0.0 3.5 0.00 0.00 0.00 46 1020.8
20260510121501 56 83 0.0 0.9 0.00 0.00 0.00 45 1020.8
20260510120959 56 87 0.9 0.9 0.00 0.00 0.00 45 1020.5
20260510120456 56 147 0.9 1.7 0.00 0.00 0.00 46 1020.0
20260510115951 56 123 0.9 6.1 0.00 0.00 0.00 43 1020.1
20260510115449 56 106 3.5 6.1 0.00 0.00 0.00 42 1020.1
20260510114944 56 114 0.0 2.6 0.00 0.00 0.00 45 1019.9
20260510114442 56 114 0.0 2.6 0.00 0.00 0.00 45 1019.8
20260510113937 56 104 0.0 0.9 0.00 0.00 0.00 44 1019.8
20260510113432 56 137 0.9 6.1 0.00 0.00 0.00 42 1019.8
20260510112931 56 74 1.7 2.6 0.00 0.00 0.00 42 1019.8
20260510112428 56 62 0.0 0.9 0.00 0.00 0.00 43 1019.6
20260510111924 57 99 0.0 0.9 0.00 0.00 0.00 43 1019.5
20260510111420 57 62 0.9 5.2 0.00 0.00 0.00 43 1019.5
20260510110915 57 78 0.9 3.5 0.00 0.00 0.00 42 1019.4
20260510110412 57 115 0.0 3.5 0.00 0.00 0.00 45 1019.4
20260510105908 57 78 0.0 1.7 0.00 0.00 0.00 44 1019.5
20260510105408 57 125 0.9 1.7 0.00 0.00 0.00 45 1019.4
20260510104904 57 58 2.6 3.5 0.00 0.00 0.00 45 1019.4
20260510104402 57 149 2.6 3.5 0.00 0.00 0.00 46 1019.2
20260510103858 58 29 0.9 1.7 0.00 0.00 0.00 46 1019.3
20260510103355 58 59 0.0 1.7 0.00 0.00 0.00 47 1019.2
20260510102851 58 96 0.0 1.7 0.00 0.00 0.00 46 1019.2
20260510102346 58 94 0.9 1.7 0.00 0.00 0.00 44 1019.1
20260510101844 58 77 0.9 1.7 0.00 0.00 0.00 45 1018.9
20260510101342 58 67 0.0 1.7 0.00 0.00 0.00 45 1018.9
20260510100838 58 117 0.0 0.9 0.00 0.00 0.00 47 1018.6
20260510100336 58 90 0.0 0.9 0.00 0.00 0.00 48 1018.6
20260510095832 58 136 0.0 0.9 0.00 0.00 0.00 47 1018.6
20260510095327 59 55 0.9 2.6 0.00 0.00 0.00 47 1018.3
20260510094826 59 110 0.0 2.6 0.00 0.00 0.00 47 1018.3
20260510094322 59 113 0.0 1.7 0.00 0.00 0.00 48 1018.4
20260510093818 59 173 1.7 2.6 0.00 0.00 0.00 47 1018.3
20260510093315 59 112 0.9 3.5 0.00 0.00 0.00 47 1018.2
20260510092811 59 107 0.0 0.9 0.00 0.00 0.00 50 1018.2
20260510092307 59 60 0.0 1.7 0.00 0.00 0.00 51 1018.1
20260510091803 59 111 0.0 1.7 0.00 0.00 0.00 52 1018.2
20260510091301 59 113 0.0 1.7 0.00 0.00 0.00 52 1018.2
20260510090756 59 109 0.0 0.0 0.00 0.00 0.00 51 1018.2
20260510090253 60 121 0.9 1.7 0.00 0.00 0.00 52 1017.9
20260510085749 60 106 1.7 2.6 0.00 0.00 0.00 52 1017.9
20260510085243 60 133 0.0 2.6 0.00 0.00 0.00 51 1017.5
20260510084739 60 134 0.0 6.1 0.00 0.00 0.00 53 1017.7
20260510084237 60 130 0.0 0.9 0.00 0.00 0.00 57 1017.6
20260510083733 60 142 0.0 1.7 0.00 0.00 0.00 58 1017.2
20260510083230 60 98 0.0 0.9 0.00 0.00 0.00 58 1017.3
20260510082725 60 108 0.0 2.6 0.00 0.00 0.00 58 1017.2
20260510082223 60 109 0.0 0.9 0.00 0.00 0.00 59 1017.5
20260510081721 61 111 0.0 0.9 0.00 0.00 0.00 60 1017.2
20260510081218 61 127 0.0 1.7 0.00 0.00 0.00 60 1017.4
20260510080713 61 117 0.0 1.7 0.00 0.00 0.00 60 1017.2
20260510080209 61 102 0.0 1.7 0.00 0.00 0.00 60 1016.8
20260510075706 62 128 0.0 1.7 0.00 0.00 0.00 59 1016.7
20260510075204 62 98 0.0 0.9 0.00 0.00 0.00 60 1016.9
20260510074701 62 114 0.0 0.0 0.00 0.00 0.00 57 1017.0
20260510074156 62 100 0.0 0.0 0.00 0.00 0.00 57 1017.0
20260510073654 62 107 0.0 0.0 0.00 0.00 0.00 57 1016.9
20260510073149 63 106 0.0 1.7 0.00 0.00 0.00 57 1017.1
20260510072645 62 101 0.0 0.0 0.00 0.00 0.00 57 1016.7
20260510072142 61 274 0.9 5.2 0.00 0.00 0.00 61 1016.7
20260510071638 60 136 0.0 0.0 0.00 0.00 0.00 63 1016.7
20260510071136 59 113 0.0 0.0 0.00 0.00 0.00 64 1016.6
20260510070633 59 113 0.0 0.0 0.00 0.00 0.00 64 1016.5
20260510070131 59 108 0.0 0.0 0.00 0.00 0.00 64 1016.4
20260510065626 59 107 0.0 0.0 0.00 0.00 0.00 64 1016.3
20260510065122 60 107 0.0 0.0 0.00 0.00 0.00 63 1016.1
20260510064618 61 107 0.0 0.0 0.00 0.00 0.00 61 1016.5
20260510064115 62 107 0.0 0.0 0.00 0.00 0.00 59 1016.5
20260510063612 62 110 0.0 0.0 0.00 0.00 0.00 56 1016.5
20260510063109 63 118 0.0 0.0 0.00 0.00 0.00 56 1016.4
20260510062605 64 127 0.0 0.0 0.00 0.00 0.00 53 1016.1
20260510062101 65 108 0.0 0.0 0.00 0.00 0.00 51 1015.8
20260510061557 66 92 1.7 2.6 0.00 0.00 0.00 50 1015.7
20260510061054 66 115 0.0 0.9 0.00 0.00 0.00 50 1015.8
20260510060550 66 114 1.7 5.2 0.00 0.00 0.00 49 1016.2
20260510060046 66 140 0.0 6.1 0.00 0.00 0.00 50 1016.0
20260510055543 67 61 0.9 3.5 0.00 0.00 0.00 48 1016.1
20260510055041 67 109 0.0 0.9 0.00 0.00 0.00 49 1016.0
20260510054537 67 107 1.7 5.2 0.00 0.00 0.00 47 1015.9
20260510054032 67 139 2.6 6.1 0.00 0.00 0.00 46 1015.9
20260510053527 67 137 0.9 1.7 0.00 0.00 0.00 47 1015.6
20260510053024 67 65 0.0 0.9 0.00 0.00 0.00 50 1015.8
20260510052520 68 118 0.0 0.9 0.00 0.00 0.00 49 1016.2
20260510052016 68 106 0.9 3.5 0.00 0.00 0.00 46 1015.8
20260510051512 68 87 0.0 0.9 0.00 0.00 0.00 47 1015.7
20260510051008 67 47 0.0 1.7 0.00 0.00 0.00 50 1015.7
20260510050506 67 151 0.9 1.7 0.00 0.00 0.00 50 1015.7
20260510050002 68 193 0.9 2.6 0.00 0.01 0.01 49 1015.5
20260510045500 67 118 0.0 0.0 0.00 0.01 0.01 52 1014.9
20260510044955 67 110 0.0 1.7 0.00 0.01 0.01 53 1014.5
20260510044453 67 125 0.0 1.7 0.00 0.01 0.01 54 1014.5
20260510043950 67 113 0.0 1.7 0.00 0.01 0.01 56 1014.3
20260510043445 66 74 0.9 0.9 0.00 0.01 0.01 59 1014.0
20260510042944 66 111 0.0 0.0 0.00 0.01 0.01 60 1014.0
20260510042439 66 120 0.0 0.0 0.00 0.01 0.01 60 1013.7
20260510041935 67 108 0.0 0.0 0.00 0.01 0.01 59 1013.8
20260510041433 67 107 0.0 0.0 0.00 0.01 0.01 58 1013.6
20260510040931 67 113 0.0 0.0 0.00 0.01 0.01 57 1013.6
20260510040427 67 114 0.0 0.0 0.00 0.01 0.01 56 1013.6
20260510035922 68 111 0.0 0.0 0.00 0.01 0.01 56 1013.3
20260510035419 68 109 0.0 0.0 0.00 0.01 0.01 55 1013.5
20260510034919 68 125 0.0 0.0 0.00 0.01 0.01 54 1013.3
20260510034418 68 113 0.0 0.0 0.00 0.01 0.01 55 1013.3
20260510033913 69 118 0.0 0.9 0.00 0.01 0.01 54 1013.3
20260510033410 69 122 0.0 0.9 0.00 0.01 0.01 52 1013.2
20260510032907 68 105 0.0 1.7 0.00 0.01 0.01 53 1013.2
20260510032404 67 111 0.0 0.0 0.00 0.01 0.01 57 1013.4
20260510031859 67 122 0.0 0.0 0.00 0.01 0.01 60 1013.2
20260510031354 67 103 0.0 0.0 0.00 0.01 0.01 60 1013.3
20260510030855 67 122 0.0 0.0 0.00 0.01 0.01 58 1013.3
20260510030351 67 122 0.0 0.0 0.00 0.01 0.01 58 1013.2
20260510025849 68 122 0.0 0.0 0.00 0.01 0.01 58 1013.3
20260510025346 68 123 0.0 0.0 0.00 0.01 0.01 57 1013.2
20260510024843 68 123 0.0 0.0 0.00 0.01 0.01 56 1013.4
20260510024340 68 123 0.0 0.0 0.00 0.01 0.01 56 1013.2
20260510023836 68 107 0.0 0.0 0.00 0.01 0.01 54 1013.3
20260510023333 69 123 0.0 0.0 0.00 0.01 0.01 54 1013.0
20260510022830 68 114 0.0 0.0 0.00 0.01 0.01 54 1012.3
20260510022329 68 122 0.0 0.0 0.00 0.01 0.01 54 1012.4
20260510021828 68 116 0.0 0.0 0.00 0.01 0.01 53 1012.1
20260510021326 69 116 0.0 0.0 0.00 0.01 0.01 52 1012.1
20260510020822 69 108 0.0 0.0 0.00 0.01 0.01 52 1012.0
20260510020317 69 91 0.0 0.0 0.00 0.01 0.01 51 1012.1
20260510015813 70 108 0.0 0.9 0.00 0.01 0.01 50 1011.9
20260510015309 70 111 0.0 0.9 0.00 0.01 0.01 49 1011.6
20260510014805 70 94 0.0 1.7 0.00 0.01 0.01 49 1011.7
20260510014302 71 108 0.0 1.7 0.00 0.01 0.01 49 1011.6
20260510013758 71 99 0.0 2.6 0.00 0.01 0.01 50 1011.6
20260510013254 71 122 0.0 0.9 0.00 0.01 0.01 49 1011.6
20260510012749 71 124 0.0 0.9 0.00 0.01 0.01 49 1011.6
20260510012244 71 79 0.0 1.7 0.00 0.01 0.01 48 1011.4
20260510011743 71 111 0.0 1.7 0.00 0.01 0.01 49 1011.0
20260510011239 71 116 0.0 0.0 0.00 0.01 0.01 49 1011.2
20260510010736 71 117 0.0 0.0 0.00 0.01 0.01 49 1011.1
20260510010232 71 114 0.0 0.0 0.00 0.01 0.01 49 1011.0
20260510005730 72 67 0.0 0.0 0.00 0.01 0.01 48 1010.7
20260510005226 72 112 0.0 0.9 0.00 0.01 0.01 47 1011.1
20260510004724 73 126 0.0 0.9 0.00 0.01 0.01 46 1010.8
20260510004222 73 65 1.7 3.5 0.00 0.01 0.01 45 1010.8
20260510003719 74 69 0.9 2.6 0.00 0.01 0.01 45 1010.6
20260510003215 74 107 0.0 0.9 0.00 0.01 0.01 45 1010.6
20260510002714 75 87 0.0 1.7 0.00 0.01 0.01 45 1010.5
20260510002211 75 139 0.0 1.7 0.00 0.01 0.01 43 1010.5
20260510001708 77 119 0.0 0.0 0.00 0.01 0.01 45 1010.5
20260510001207 77 118 0.0 0.0 0.00 0.01 0.01 44 1010.2
20260510000702 76 215 1.7 1.7 0.00 0.01 0.01 43 1010.0
20260510000159 76 165 1.7 3.5 0.00 0.01 0.01 41 1010.1
20260509235656 77 59 0.0 6.1 0.00 0.01 0.01 42 1010.2
20260509235152 78 96 0.9 1.7 0.00 0.01 0.01 41 1010.0
20260509234649 78 115 1.7 5.2 0.00 0.01 0.01 40 1010.0
20260509234146 78 119 0.0 0.9 0.00 0.01 0.01 39 1009.9
20260509233644 78 124 0.0 8.7 0.00 0.01 0.01 39 1009.9
20260509233141 79 357 0.9 1.7 0.00 0.01 0.01 38 1009.7
20260509232637 78 101 0.0 7.0 0.00 0.01 0.01 38 1009.6
20260509232134 78 291 0.9 1.7 0.00 0.01 0.01 39 1009.8
20260509231630 78 305 1.7 1.7 0.00 0.01 0.01 39 1009.7
20260509231128 79 115 0.0 2.6 0.00 0.01 0.01 38 1009.6
20260509230625 79 239 1.7 2.6 0.00 0.01 0.01 38 1009.5
20260509230122 79 117 0.9 0.9 0.00 0.01 0.01 37 1009.5
20260509225618 79 279 1.7 5.2 0.00 0.01 0.01 36 1009.6